Weather History for New York, NY

Change the Weather History Date:

Wednesday, November 23, 2011

  Actual Average Record
Temperature  
Mean Temperature 48 °F 46 °F  
Max Temperature 55 °F 52 °F 70 °F (1992)
Min Temperature 41 °F 40 °F 23 °F (1972)
Degree Days  
Heating Degree Days 17 19  
Month to date heating degree days 304 361  
Since 1 July heating degree days 546 633  
Cooling Degree Days 0 0  
Month to date cooling degree days 0 0  
Year to date cooling degree days 1375 1213  
Moisture  
Dew Point 42 °F    
Average Humidity 83    
Maximum Humidity 96    
Minimum Humidity 70    
Precipitation  
Precipitation 0.46 in 0.11 in 1.35 in (2006)
Month to date precipitation 2.56 2.57  
Year to date precipitation 61.13 40.33  
Snow  
Snow 0.00 in 0.00 in 5.70 in (1989)
Month to date snowfall 0.0 0.1  
Since 1 July snowfall 1.7 0.1  
Snow Depth 0.00 in    
Sea Level Pressure  
Sea Level Pressure 29.75 in    
Wind  
Wind Speed 13 mph (NNE)    
Max Wind Speed 24 mph    
Max Gust Speed 33 mph    
Visibility 8 miles    
Events Rain    
T = Trace of Precipitation, MM = Missing Value Source: NWS Daily Summary

Daily Weather History Graph

Daily Weather History Graph

Search for Another Location

Airport:

Trip Planner

Search our weather history database for the weather conditions in past years. The results will help you decide how hot, cold, wet, or windy it might be!

Date:

Astronomy

Nov. 23, 2011 Rise Set
Actual Time 6:51 AM EST 4:32 PM EST
Civil Twilight 6:21 AM EST 5:01 PM EST
Nautical Twilight 5:47 AM EST 5:35 PM EST
Astronomical Twilight 5:15 AM EST 6:08 PM EST
Moon 4:52 AM EST (11/23) 3:11 PM EST (11/23)
Length of Visible Light 10h 40m
Length of Day
9h 40m
Waning Crescent, 4% of the Moon is Illuminated
Nov 23
Waning Crescent
Nov 25
New
Dec 2
First Quarter
Dec 10
Full
Dec 17
Last Quarter

Hourly Weather History & Observations

Time (EST) Temp. Windchill Dew Point Humidity Pressure Visibility Wind Dir Wind Speed Gust Speed Precip Events Conditions
12:51 AM 46.9 °F - 44.1 °F 90% 29.92 in 5.0 mi East 16.1 mph 21.9 mph 0.11 in Rain Rain
1:51 AM 48.0 °F - 46.0 °F 93% 29.84 in 10.0 mi East 18.4 mph - 0.08 in Rain Light Rain
2:11 AM 48.2 °F - 46.4 °F 93% 29.81 in 10.0 mi East 12.7 mph - 0.02 in Rain Light Rain
2:38 AM 48.2 °F - 48.2 °F 100% 29.79 in 4.0 mi NE 5.8 mph - 0.03 in Rain Light Rain
2:51 AM 48.9 °F - 46.9 °F 93% 29.76 in 3.0 mi ENE 15.0 mph - 0.04 in Rain Light Rain
3:16 AM 50.0 °F - 48.2 °F 94% 29.74 in 7.0 mi NE 16.1 mph - 0.02 in   Overcast
3:51 AM 50.0 °F - 48.0 °F 93% 29.70 in 9.0 mi ENE 12.7 mph - 0.02 in   Overcast
4:09 AM 50.0 °F - 48.2 °F 94% 29.68 in 5.0 mi ENE 8.1 mph - 0.00 in Rain Light Rain
4:51 AM 52.0 °F - 51.1 °F 97% 29.65 in 3.0 mi ENE 6.9 mph - 0.00 in Rain Light Rain
5:04 AM 53.6 °F - 51.8 °F 94% 29.64 in 4.0 mi Calm Calm - 0.01 in Rain Light Rain
5:21 AM 55.4 °F - 53.6 °F 94% 29.64 in 2.5 mi Variable 3.5 mph - 0.02 in Rain Rain
5:35 AM 55.4 °F - 53.6 °F 94% 29.65 in 4.0 mi WNW 15.0 mph - 0.13 in Rain Heavy Rain
5:51 AM 51.1 °F - 50.0 °F 96% 29.66 in 8.0 mi NW 11.5 mph - 0.14 in Rain Light Rain
6:51 AM 50.0 °F - 48.9 °F 96% 29.63 in 10.0 mi NE 3.5 mph - 0.02 in Rain Light Rain
7:17 AM 50.0 °F - 48.2 °F 94% 29.64 in 10.0 mi NNE 4.6 mph - 0.01 in Rain Light Rain
7:51 AM 48.9 °F - 48.0 °F 97% 29.64 in 10.0 mi North 5.8 mph - 0.01 in   Overcast
8:51 AM 48.9 °F - 46.0 °F 90% 29.63 in 10.0 mi North 8.1 mph - N/A   Overcast
9:51 AM 46.9 °F - 44.1 °F 90% 29.61 in 10.0 mi North 9.2 mph - 0.00 in   Overcast
10:51 AM 48.0 °F - 44.1 °F 86% 29.60 in 10.0 mi NNE 8.1 mph - N/A   Overcast
11:15 AM 46.4 °F 42.9 °F 44.6 °F 93% 29.59 in 8.0 mi North 6.9 mph - N/A   Overcast
11:51 AM 46.9 °F - 44.1 °F 90% 29.58 in 8.0 mi North 9.2 mph - N/A   Overcast
12:51 PM 46.0 °F 41.0 °F 43.0 °F 89% 29.59 in 10.0 mi North 10.4 mph - 0.06 in Rain Light Rain
1:51 PM 46.0 °F 40.2 °F 42.1 °F 86% 29.62 in 10.0 mi North 12.7 mph - 0.00 in   Overcast
2:47 PM 46.4 °F 40.1 °F 41.0 °F 81% 29.65 in 10.0 mi North 15.0 mph - N/A   Overcast
3:33 PM 44.6 °F 37.8 °F 39.2 °F 81% 29.69 in 10.0 mi North 15.0 mph - N/A   Overcast
3:51 PM 45.0 °F 37.9 °F 39.0 °F 80% 29.69 in 10.0 mi North 16.1 mph - 0.00 in Rain Light Rain
4:51 PM 44.1 °F 37.1 °F 37.9 °F 79% 29.76 in 10.0 mi North 15.0 mph 20.7 mph 0.00 in   Overcast
5:13 PM 44.6 °F 38.1 °F 37.4 °F 76% 29.77 in 10.0 mi North 13.8 mph 25.3 mph N/A   Overcast
5:51 PM 44.1 °F 37.4 °F 36.0 °F 73% 29.80 in 10.0 mi North 13.8 mph 27.6 mph 0.00 in Rain Light Rain
6:51 PM 43.0 °F 35.7 °F 34.0 °F 71% 29.85 in 10.0 mi North 15.0 mph 23.0 mph 0.00 in   Mostly Cloudy
7:51 PM 42.1 °F 33.9 °F 33.1 °F 70% 29.90 in 10.0 mi North 17.3 mph 29.9 mph N/A   Scattered Clouds
7:58 PM 42.8 °F 34.5 °F 33.8 °F 70% 29.90 in 10.0 mi North 18.4 mph 27.6 mph N/A   Mostly Cloudy
8:13 PM 42.8 °F 35.8 °F 33.8 °F 70% 29.91 in 10.0 mi North 13.8 mph 20.7 mph N/A   Scattered Clouds
8:51 PM 41.0 °F 32.5 °F 33.1 °F 73% 29.93 in 10.0 mi North 17.3 mph - N/A   Partly Cloudy
9:51 PM 42.1 °F 33.6 °F 33.1 °F 70% 29.95 in 10.0 mi NNW 18.4 mph 27.6 mph N/A   Partly Cloudy
10:51 PM 41.0 °F 33.1 °F 34.0 °F 76% 29.97 in 10.0 mi North 15.0 mph - N/A   Partly Cloudy
11:29 PM 41.0 °F 34.3 °F 33.8 °F 76% 29.99 in 10.0 mi North 11.5 mph - N/A   Mostly Cloudy
11:34 PM 41.0 °F 34.7 °F 33.8 °F 76% 29.99 in 10.0 mi North 10.4 mph - N/A   Scattered Clouds
11:51 PM 41.0 °F 34.3 °F 33.1 °F 73% 29.99 in 10.0 mi North 11.5 mph - N/A   Scattered Clouds